Weather History for Hot Springs, AR

Change the Weather History Date:

Sunday, February 2, 2014

  Actual Average Record
Temperature  
Mean Temperature 37 °F -  
Max Temperature 41 °F 54 °F 80 °F (1989)
Min Temperature 32 °F 32 °F 1 °F (1951)
Degree Days  
Heating Degree Days 28    
Moisture  
Dew Point 32 °F    
Average Humidity 87    
Maximum Humidity 93    
Minimum Humidity 75    
Precipitation  
Precipitation 1.03 in - - ()
Sea Level Pressure  
Sea Level Pressure 30.12 in    
Wind  
Wind Speed 5 mph (North)    
Max Wind Speed 13 mph    
Max Gust Speed 20 mph    
Visibility 6 miles    
Events Rain , Thunderstorm    
Averages and records for this station are not official NWS values.
T = Trace of Precipitation, MM = Missing Value Source: NWS Daily Summary

Daily Weather History Graph

Daily Weather History Graph

Search for Another Location

Airport:

Trip Planner

Search our weather history database for the weather conditions in past years. The results will help you decide how hot, cold, wet, or windy it might be!

Date:

Astronomy

Feb. 02, 2014 Rise Set
Actual Time 7:09 AM CST 5:43 PM CST
Civil Twilight 6:43 AM CST 6:09 PM CST
Nautical Twilight 6:13 AM CST 6:39 PM CST
Astronomical Twilight 5:43 AM CST 7:09 PM CST
Moon 8:46 AM CST (2/2) 9:16 PM CST (2/2)
Length of Visible Light 11h 26m
Length of Day
10h 33m
Waxing Crescent, 11% of the Moon is Illuminated
Feb 2
Waxing Crescent
Feb 6
First Quarter
Feb 14
Full
Feb 22
Last Quarter
Mar 1
New

Hourly Weather History & Observations

Time (CST) Temp. Windchill Dew Point Humidity Pressure Visibility Wind Dir Wind Speed Gust Speed Precip Events Conditions
12:53 AM 39.9 °F 37.8 °F 37.9 °F 93% 30.00 in 10.0 mi NW 3.5 mph - 0.00 in   Overcast
1:53 AM 39.9 °F - 37.9 °F 93% 30.01 in 9.0 mi Calm Calm - 0.00 in Rain Light Rain
2:53 AM 41.0 °F 39.0 °F 37.9 °F 89% 30.04 in 4.0 mi Variable 3.5 mph - 0.03 in Rain Rain
3:17 AM 39.2 °F 35.9 °F 37.4 °F 93% 30.04 in 9.0 mi North 4.6 mph - 0.03 in Rain Light Rain
3:41 AM 39.2 °F - 37.4 °F 93% 30.05 in 10.0 mi Calm Calm - 0.03 in   Overcast
3:53 AM 39.9 °F 35.1 °F 37.0 °F 89% 30.06 in 10.0 mi Variable 6.9 mph - 0.03 in Rain Light Rain
4:53 AM 39.0 °F 34.0 °F 36.0 °F 89% 30.07 in 6.0 mi North 6.9 mph - 0.02 in Rain Rain
5:05 AM 39.2 °F 35.0 °F 35.6 °F 87% 30.07 in 10.0 mi North 5.8 mph - 0.00 in Rain Light Rain
5:53 AM 39.0 °F 34.8 °F 35.1 °F 86% 30.08 in 10.0 mi Variable 5.8 mph - 0.00 in Rain Light Rain
6:03 AM 37.4 °F 32.8 °F 35.6 °F 93% 30.10 in 7.0 mi Variable 5.8 mph - 0.01 in Rain Rain
6:45 AM 37.4 °F 30.3 °F 33.8 °F 87% 30.09 in 6.0 mi NE 10.4 mph - 0.05 in Rain Light Rain
6:53 AM 37.0 °F 29.8 °F 33.1 °F 86% 30.07 in 6.0 mi NE 10.4 mph - 0.05 in Rain Light Rain
7:53 AM 36.0 °F 31.1 °F 33.1 °F 89% 30.11 in 9.0 mi Variable 5.8 mph - 0.01 in   Overcast
8:44 AM 35.6 °F 29.9 °F 32.0 °F 87% 30.15 in 2.0 mi Variable 6.9 mph - 0.01 in Rain Light Rain
8:53 AM 36.0 °F 32.1 °F 33.1 °F 89% 30.15 in 3.0 mi NNW 4.6 mph - 0.01 in Rain Light Rain
9:53 AM 35.1 °F 31.0 °F 32.0 °F 89% 30.14 in 8.0 mi NNE 4.6 mph - 0.00 in   Overcast
10:36 AM 35.6 °F 27.1 °F 30.2 °F 81% 30.13 in 4.0 mi NNE 12.7 mph 19.6 mph 0.00 in Rain Light Rain
10:53 AM 35.1 °F 29.3 °F 32.0 °F 89% 30.14 in 6.0 mi Variable 6.9 mph - 0.00 in Rain Light Rain
11:00 AM 35.6 °F 27.5 °F 30.2 °F 81% 30.12 in 5.0 mi NNE 11.5 mph 17.3 mph 0.00 in Rain Light Rain
11:25 AM 35.6 °F 32.8 °F 30.2 °F 81% 30.17 in 1.8 mi NNE 3.5 mph - 0.02 in Rain Rain
11:53 AM 34.0 °F 26.0 °F 30.9 °F 89% 30.14 in 1.5 mi NNE 10.4 mph 16.1 mph 0.19 in Rain Heavy Rain
12:16 PM 33.8 °F 27.0 °F 32.0 °F 93% 30.12 in 1.2 mi NNE 8.1 mph 17.3 mph 0.15 in Rain Heavy Rain
12:23 PM 33.8 °F 27.7 °F 30.2 °F 87% 30.11 in 2.0 mi Variable 6.9 mph 17.3 mph 0.18 in Rain Heavy Rain
12:45 PM 35.6 °F 32.8 °F 32.0 °F 87% 30.12 in 1.5 mi WNW 3.5 mph - 0.27 in Rain Heavy Rain
12:53 PM 34.0 °F 29.8 °F 32.0 °F 92% 30.10 in 2.5 mi North 4.6 mph - 0.29 in Rain Rain
1:06 PM 33.8 °F 28.6 °F 32.0 °F 93% 30.10 in 3.0 mi NE 5.8 mph - 0.04 in Rain , Thunderstorm Rain
1:26 PM 33.8 °F 27.7 °F 30.2 °F 87% 30.09 in 2.0 mi Variable 6.9 mph - 0.09 in Rain , Thunderstorm Heavy Rain
1:36 PM 33.8 °F 29.6 °F 32.0 °F 93% 30.08 in 2.0 mi NNW 4.6 mph - 0.12 in Rain Heavy Rain
1:48 PM 33.8 °F 27.7 °F 30.2 °F 87% 30.08 in 4.0 mi Variable 6.9 mph - 0.14 in Rain Rain
1:53 PM 34.0 °F 31.0 °F 30.9 °F 89% 30.09 in 4.0 mi Variable 3.5 mph - 0.15 in Rain Rain
2:53 PM 35.1 °F 30.1 °F 32.0 °F 89% 30.10 in 8.0 mi NNE 5.8 mph - 0.04 in Rain Light Rain
3:53 PM 34.0 °F 27.2 °F 30.9 °F 89% 30.06 in 5.0 mi NE 8.1 mph - 0.08 in Rain Rain
4:53 PM 35.1 °F 27.4 °F 30.9 °F 85% 30.10 in 10.0 mi North 10.4 mph - 0.07 in Rain Light Rain
5:53 PM 35.1 °F 32.2 °F 30.9 °F 85% 30.15 in 8.0 mi Variable 3.5 mph - 0.02 in Rain Rain
6:53 PM 34.0 °F 28.0 °F 30.0 °F 85% 30.15 in 5.0 mi Variable 6.9 mph - 0.04 in Rain Rain
7:50 PM 33.8 °F 27.7 °F 30.2 °F 87% 30.14 in 10.0 mi Variable 6.9 mph - 0.00 in   Overcast
7:53 PM 34.0 °F 31.0 °F 30.0 °F 85% 30.15 in 10.0 mi North 3.5 mph - 0.00 in   Overcast
8:53 PM 34.0 °F 28.8 °F 28.9 °F 82% 30.22 in 10.0 mi NNW 5.8 mph - N/A   Overcast
9:53 PM 33.1 °F 26.1 °F 28.9 °F 85% 30.23 in 10.0 mi North 8.1 mph - N/A   Overcast
10:09 PM 33.8 °F 27.0 °F 28.4 °F 81% 30.22 in 10.0 mi North 8.1 mph - N/A   Overcast
10:53 PM 33.1 °F 30.0 °F 28.0 °F 82% 30.24 in 10.0 mi North 3.5 mph - N/A   Overcast
11:08 PM 33.8 °F 29.6 °F 26.6 °F 75% 30.23 in 10.0 mi North 4.6 mph - N/A   Overcast
11:20 PM 33.8 °F 30.8 °F 26.6 °F 75% 30.23 in 10.0 mi North 3.5 mph - N/A   Overcast
11:53 PM 32.0 °F 25.6 °F 25.0 °F 75% 30.24 in 10.0 mi NNE 6.9 mph - N/A   Scattered Clouds